This is the latest recevied weather packets stored in our database for station/object IK8SUT-2. If no packets are shown the sender has not sent any weather packets the latest 1 day(s).
| Time | Temp. | Humidity | Pressure | Rain* | Wind** | Luminosity | Snow |
|---|---|---|---|---|---|---|---|
| 1778094728 | 25° C | 50% | 1005.1 hPa | - | - | - | - |
| 1778093827 | 25° C | 50% | 1004.7 hPa | - | - | - | - |
| 1778091125 | 23.89° C | 51% | 1004 hPa | - | - | - | - |
| 1778090224 | 22.78° C | 53% | 1003.8 hPa | - | - | - | - |
| 1778086621 | 22.78° C | 53% | 1003.5 hPa | - | - | - | - |
| 1778083019 | 22.78° C | 53% | 1003.7 hPa | - | - | - | - |
| 1778080316 | 22.78° C | 53% | 1003.6 hPa | - | - | - | - |
| 1778079415 | 22.78° C | 53% | 1003.5 hPa | - | - | - | - |
| 1778076713 | 23.33° C | 53% | 1003.3 hPa | - | - | - | - |
| 1778068606 | 22.78° C | 53% | 1004 hPa | - | - | - | - |
| 1778065904 | 22.78° C | 53% | 1003.9 hPa | - | - | - | - |
| 1778065003 | 22.78° C | 53% | 1003.8 hPa | - | - | - | - |
| 1778064102 | 22.22° C | 53% | 1003.9 hPa | - | - | - | - |
| 1778061400 | 22.22° C | 53% | 1004.1 hPa | - | - | - | - |
| 1778060500 | 22.22° C | 53% | 1004 hPa | - | - | - | - |
| 1778057797 | 22.22° C | 53% | 1004 hPa | - | - | - | - |
| 1778056896 | 22.22° C | 53% | 1003.9 hPa | - | - | - | - |
| 1778055995 | 22.22° C | 53% | 1003.9 hPa | - | - | - | - |
| 1778054194 | 22.22° C | 53% | 1004 hPa | - | - | - | - |
| 1778053293 | 22.22° C | 53% | 1004.1 hPa | - | - | - | - |
| 1778052392 | 22.22° C | 53% | 1004.2 hPa | - | - | - | - |
| 1778050591 | 22.22° C | 53% | 1004.3 hPa | - | - | - | - |
| 1778049690 | 22.22° C | 53% | 1004.3 hPa | - | - | - | - |
| 1778046988 | 22.22° C | 53% | 1004.4 hPa | - | - | - | - |
| 1778046087 | 22.78° C | 53% | 1004.3 hPa | - | - | - | - |
* Rain since midnight (hover to see other rain measurements)
** Current wind speed in m/s (hover to see current wind gust speed)